カタログに戻る

FENGYUN 1C DEB

運用中SSO
NORAD 31522·DEBRIS·🇨🇳 China

打ち上げ May 10, 1999 から Taiyuan Satellite Launch Center

Loading…

次のパス (今後24時間)

TLE

最新Source: Space-Track

元期: Sep 13, 2026, 12:02 UTC

1 31522U 99025BXM 26256.50146095  .00000211  00000-0  15721-3 0  9992
2 31522  98.6972 268.1862 0043758 148.1910 212.1915 14.04414978988525

AllMySatでFENGYUN 1C DEBをリアルタイム追跡

Download on the App Store